Showing default

SKY MEXICO-1, 40664

Orbit data source: Space-Track

SKY MEXICO-1, 40664 is a Mexican payload satellite in GEO that was launched on Wed, 27 May 2015 UTC via an ARIANE 5ECA launch vehicle from the French Guiana (FRGUI). Payloads include a variety of satellites, spacecraft, and rockets equipped with specific instruments for various scientific and technological missions. These include communications satellites like Starlink; space stations such as the ISS; scientific satellites like the Hubble; Earth observation satellites from companies like Planet Labs, Umbra, and HawkEye 360; GPS; miniature CubeSats for education and research; and military/defense satellites.

Loading next visibility...
SKY MEXICO-1 details
Identifier
40664, 2015-026B
Orbit
GEO
Last TLE update13 hours ago
Origin
Flag of MXSKYM/DTVLA (MX / MEX)
ManufacturerOATK SSG
MissionOperational Commercial Communications
Bus & MotorGEOSTAR-2, IHI BT-4
Mass3,182 kg wet, 1,260 kg dry
Launch date (UTC)
2015-05-27 (10 years ago)
Launch vehicle
ARIANE 5ECA
Launch site
French Guiana (FRGUI)
Object type
Payload
Rocket body
Debris
Shape & HBRBox + 2 Pan, 22.4 m
Radar Cross Section28.221 m², Large (>1 m²)

Expand to show TLE details & history

TLE from 13 hours ago
0 SKY MEXICO-1
1 40664U 15026B   24339.86013744 -.00000213  00000-0  00000-0 0  9995
2 40664   0.0215   0.3679 0002296 265.8181  38.8676  1.00270073 34842
Epoch: 2024-12-04T20:38Z
Definitive object data (Epoch: 2024-12-04T20:38:35.874Z)
Latitude-0.03094°
Longitude-78.75275°
Altitude35,779.005 km
Speed3.075 km/s
True Right ascension20h 20m 11s
True Declination0° 01' 51"
Sunlit
Object was in daylight at TLE epoch
Visualization TLE readout
Latitude0.01708°
Longitude124.17598°
Altitude35,791.193 km
Speed3.074 km/s
Apparent Right ascension10h 05m 03s
Apparent Declination-6° 07' 17"
Sunlit
Object is in daylight
Visualization observer readout
Local Sidereal Time08:06:36
Azimuth142.332° SSE
Elevation36.482°
Doppler factor1
Orbital elements
Apogee altitude35,797.827 km
Perigee altitude35,778.464 km
Semi-major axis42,166.282 km
Eccentricity0.0002296
Inclination0.0215°
RAAN0.3679°
Arg. of periapsis265.8181°
True anomaly38.88411°
Mean anomaly38.8676°
Eccentric anomaly38.87586°
Mean motion0.25067 °/min
BSTARUnknown
Orbital period1436.17 mins
Loading historical data...
40664 neighbors
Authenticating...
Loading maneuver chart data...
Loading historical data...
Loading historical data...
Loading historical data...
Loading historical data...
Loading historical data...
Loading historical data...
Loading historical data...
Other satellites on launch #26 in the year 2015 (2015-05-27 UTC)

SKY MEXICO-1 Visibility forecast

Observer location: undefined°, undefined

Span
Click to sort rows by Start time (UTC) header in descending order
Start Az.
Max El. time (UTC)
Max El. Az.
Max El.
End time (UTC)
End Az.
1440 mins2024-12-05 10:08:15.850Z142.344° SSE2024-12-06 07:45:15.850Z142.324° SSE30.736°2024-12-06 10:08:15.850Z142.351° SSE
|